| time (UTC) | temp F | wind direction | speed MPH | gust MPH | rain 1hr in | rain 24hr in | rain mn in | humidity % | barometer mb |
| 20260505123013 | 70 | 169 | 11.0 | 22.0 | 0.00 | 0.00 | 0.00 | 87 | 1003.6 |
| 20260505121947 | 70 | 0 | 9.0 | 18.0 | 0.00 | 0.00 | 0.00 | 87 | 1003.6 |
| 20260505120919 | 70 | 213 | 10.0 | 17.0 | 0.00 | 0.00 | 0.00 | 86 | 1003.5 |
| 20260505115859 | 70 | 187 | 10.0 | 23.0 | 0.00 | 0.00 | 0.00 | 86 | 1003.3 |
| 20260505114857 | 70 | 186 | 10.0 | 23.0 | 0.00 | 0.00 | 0.00 | 86 | 1003.2 |
| 20260505113844 | 70 | 173 | 10.0 | 21.0 | 0.00 | 0.00 | 0.00 | 86 | 1003.3 |
| 20260505112843 | 70 | 188 | 11.0 | 18.0 | 0.00 | 0.00 | 0.00 | 86 | 1003.3 |
| 20260505110656 | 70 | 201 | 11.0 | 19.0 | 0.00 | 0.00 | 0.00 | 86 | 1003.0 |
| 20260505101445 | 70 | 186 | 12.0 | 21.0 | 0.00 | 0.00 | 0.00 | 86 | 1003.2 |
| 20260505100439 | 70 | 194 | 11.0 | 25.0 | 0.00 | 0.00 | 0.00 | 86 | 1003.2 |
| 20260505095423 | 70 | 217 | 12.0 | 25.0 | 0.00 | 0.00 | 0.00 | 86 | 1003.4 |
| 20260505094422 | 70 | 166 | 10.0 | 21.0 | 0.00 | 0.00 | 0.00 | 86 | 1003.4 |
| 20260505093440 | 70 | 181 | 10.0 | 20.0 | 0.00 | 0.00 | 0.00 | 86 | 1003.6 |
| 20260505092436 | 70 | 207 | 12.0 | 21.0 | 0.00 | 0.00 | 0.00 | 86 | 1003.6 |
| 20260505091448 | 70 | 199 | 13.0 | 25.0 | 0.00 | 0.00 | 0.00 | 86 | 1003.7 |
| 20260505084211 | 70 | 203 | 11.0 | 22.0 | 0.00 | 0.00 | 0.00 | 86 | 1003.6 |
| 20260505083222 | 70 | 196 | 12.0 | 22.0 | 0.00 | 0.00 | 0.00 | 85 | 1003.6 |
| 20260505082237 | 70 | 196 | 12.0 | 20.0 | 0.00 | 0.00 | 0.00 | 85 | 1003.7 |
| 20260505081226 | 70 | 192 | 11.0 | 18.0 | 0.00 | 0.00 | 0.00 | 85 | 1003.8 |
| 20260505080244 | 70 | 185 | 12.0 | 27.0 | 0.00 | 0.00 | 0.00 | 85 | 1003.8 |
| 20260505075250 | 71 | 187 | 13.0 | 27.0 | 0.00 | 0.00 | 0.00 | 84 | 1003.9 |
| 20260505074232 | 71 | 180 | 14.0 | 26.0 | 0.00 | 0.00 | 0.00 | 84 | 1004.0 |
| 20260505073212 | 71 | 187 | 13.0 | 29.0 | 0.00 | 0.00 | 0.00 | 83 | 1004.2 |
| 20260505072231 | 71 | 221 | 15.0 | 29.0 | 0.00 | 0.00 | 0.00 | 83 | 1004.3 |
| 20260505071228 | 71 | 192 | 13.0 | 25.0 | 0.00 | 0.00 | 0.00 | 82 | 1004.3 |
| 20260505063943 | 71 | 188 | 11.0 | 24.0 | 0.00 | 0.00 | 0.00 | 81 | 1004.7 |
| 20260505062936 | 71 | 196 | 12.0 | 23.0 | 0.00 | 0.00 | 0.00 | 81 | 1004.8 |
| 20260505060828 | 71 | 194 | 10.0 | 20.0 | 0.00 | 0.00 | 0.00 | 80 | 1004.8 |
| 20260505055758 | 71 | 206 | 11.0 | 23.0 | 0.00 | 0.00 | 0.00 | 79 | 1004.9 |
| 20260505054818 | 71 | 219 | 11.0 | 23.0 | 0.00 | 0.00 | 0.00 | 79 | 1005.1 |
| 20260505053813 | 71 | 184 | 10.0 | 19.0 | 0.00 | 0.00 | 0.00 | 79 | 1005.1 |
| 20260505052811 | 71 | 192 | 11.0 | 21.0 | 0.00 | 0.00 | 0.00 | 78 | 1005.2 |
| 20260505051830 | 72 | 202 | 11.0 | 24.0 | 0.00 | 0.00 | 0.00 | 78 | 1005.3 |
| 20260505050854 | 72 | 171 | 13.0 | 24.0 | 0.00 | 0.00 | 0.00 | 78 | 1005.3 |
| 20260505041644 | 72 | 177 | 8.0 | 20.0 | 0.00 | 0.00 | 0.00 | 76 | 1005.6 |
| 20260505040615 | 72 | 184 | 9.0 | 20.0 | 0.00 | 0.00 | 0.00 | 76 | 1005.7 |
| 20260505034458 | 72 | 155 | 7.0 | 15.0 | 0.00 | 0.00 | 0.00 | 75 | 1005.7 |
| 20260505033507 | 72 | 183 | 8.0 | 16.0 | 0.00 | 0.00 | 0.00 | 75 | 1005.9 |
| 20260505032517 | 72 | 190 | 8.0 | 16.0 | 0.00 | 0.00 | 0.00 | 74 | 1005.9 |
| 20260505031516 | 72 | 119 | 8.0 | 15.0 | 0.00 | 0.00 | 0.00 | 74 | 1005.8 |
| 20260505030538 | 72 | 174 | 7.0 | 15.0 | 0.00 | 0.00 | 0.00 | 74 | 1005.8 |
| 20260505025601 | 73 | 175 | 8.0 | 15.0 | 0.00 | 0.00 | 0.00 | 73 | 1005.8 |
| 20260505024545 | 73 | 175 | 7.0 | 15.0 | 0.00 | 0.00 | 0.00 | 73 | 1005.7 |
| 20260505023603 | 73 | 198 | 7.0 | 13.0 | 0.00 | 0.00 | 0.00 | 72 | 1005.6 |
| 20260505022619 | 73 | 162 | 6.0 | 16.0 | 0.00 | 0.00 | 0.00 | 72 | 1005.7 |
| 20260505021617 | 74 | 168 | 7.0 | 16.0 | 0.00 | 0.00 | 0.00 | 71 | 1005.6 |
| 20260505020623 | 74 | 195 | 7.0 | 16.0 | 0.00 | 0.00 | 0.00 | 70 | 1005.6 |
| 20260505015609 | 74 | 190 | 11.0 | 22.0 | 0.00 | 0.00 | 0.00 | 70 | 1005.4 |
| 20260505014553 | 74 | 165 | 12.0 | 25.0 | 0.00 | 0.00 | 0.00 | 69 | 1005.3 |
| 20260505011244 | 75 | 167 | 7.0 | 13.0 | 0.00 | 0.00 | 0.00 | 69 | 1005.5 |
| 20260505010303 | 75 | 186 | 8.0 | 17.0 | 0.00 | 0.00 | 0.00 | 68 | 1005.5 |
| 20260505005232 | 76 | 172 | 8.0 | 18.0 | 0.00 | 0.00 | 0.00 | 68 | 1005.5 |
| 20260505004239 | 76 | 186 | 8.0 | 18.0 | 0.00 | 0.00 | 0.00 | 67 | 1005.6 |
| 20260505003226 | 76 | 192 | 10.0 | 26.0 | 0.00 | 0.00 | 0.00 | 65 | 1005.6 |
| 20260505002206 | 77 | 193 | 10.0 | 26.0 | 0.00 | 0.00 | 0.00 | 65 | 1005.5 |
| 20260505001225 | 77 | 173 | 10.0 | 19.0 | 0.00 | 0.00 | 0.00 | 64 | 1005.6 |
| 20260505000218 | 77 | 191 | 10.0 | 23.0 | 0.00 | 0.00 | 0.00 | 63 | 1005.4 |
| 20260504234059 | 78 | 194 | 11.0 | 27.0 | 0.00 | 0.00 | 0.00 | 62 | 1005.7 |
| 20260504233058 | 78 | 206 | 13.0 | 27.0 | 0.00 | 0.00 | 0.00 | 61 | 1005.8 |
| 20260504225842 | 80 | 200 | 12.0 | 26.0 | 0.00 | 0.00 | 0.00 | 59 | 1006.4 |
| 20260504224810 | 80 | 183 | 15.0 | 30.0 | 0.00 | 0.00 | 0.00 | 58 | 1006.3 |
| 20260504223803 | 80 | 180 | 14.0 | 30.0 | 0.00 | 0.00 | 0.00 | 59 | 1006.3 |
| 20260504222821 | 80 | 170 | 13.0 | 26.0 | 0.00 | 0.00 | 0.00 | 58 | 1006.4 |
| 20260504221805 | 79 | 133 | 16.0 | 29.0 | 0.00 | 0.00 | 0.00 | 58 | 1006.5 |
| 20260504220809 | 80 | 167 | 16.0 | 29.0 | 0.00 | 0.00 | 0.00 | 56 | 1006.7 |
| 20260504215833 | 80 | 192 | 13.0 | 25.0 | 0.00 | 0.00 | 0.00 | 55 | 1006.7 |
| 20260504214815 | 80 | 173 | 13.0 | 25.0 | 0.00 | 0.00 | 0.00 | 56 | 1006.9 |
| 20260504213811 | 80 | 202 | 12.0 | 29.0 | 0.00 | 0.00 | 0.00 | 55 | 1006.9 |
| 20260504212744 | 80 | 178 | 15.0 | 29.0 | 0.00 | 0.00 | 0.00 | 54 | 1007.0 |
| 20260504210633 | 80 | 188 | 14.0 | 26.0 | 0.00 | 0.00 | 0.00 | 53 | 1007.5 |
| 20260504205624 | 80 | 147 | 12.0 | 25.0 | 0.00 | 0.00 | 0.00 | 55 | 1007.6 |
| 20260504204601 | 80 | 179 | 12.0 | 24.0 | 0.00 | 0.00 | 0.00 | 55 | 1007.8 |
| 20260504203554 | 80 | 146 | 13.0 | 24.0 | 0.00 | 0.00 | 0.00 | 54 | 1008.0 |
| 20260504202604 | 80 | 187 | 13.0 | 28.0 | 0.00 | 0.00 | 0.00 | 53 | 1008.2 |
| 20260504201546 | 79 | 172 | 15.0 | 28.0 | 0.00 | 0.00 | 0.00 | 53 | 1008.4 |
| 20260504195351 | 79 | 178 | 14.0 | 24.0 | 0.00 | 0.00 | 0.00 | 52 | 1008.9 |
| 20260504193211 | 79 | 185 | 13.0 | 27.0 | 0.00 | 0.00 | 0.00 | 50 | 1009.3 |
| 20260504192212 | 79 | 192 | 12.0 | 27.0 | 0.00 | 0.00 | 0.00 | 52 | 1009.4 |
| 20260504190013 | 78 | 180 | 13.0 | 28.0 | 0.00 | 0.00 | 0.00 | 53 | 1009.8 |
| 20260504185000 | 78 | 167 | 13.0 | 28.0 | 0.00 | 0.00 | 0.00 | 51 | 1009.7 |
| 20260504184025 | 78 | 182 | 11.0 | 23.0 | 0.00 | 0.00 | 0.00 | 52 | 1009.8 |
| 20260504183041 | 77 | 207 | 12.0 | 24.0 | 0.00 | 0.00 | 0.00 | 52 | 1010.0 |
| 20260504182045 | 77 | 221 | 13.0 | 25.0 | 0.00 | 0.00 | 0.00 | 53 | 1010.2 |
| 20260504181040 | 76 | 207 | 12.0 | 25.0 | 0.00 | 0.00 | 0.00 | 57 | 1010.4 |
| 20260504180031 | 76 | 173 | 15.0 | 27.0 | 0.00 | 0.00 | 0.00 | 54 | 1010.5 |
| 20260504175022 | 76 | 210 | 14.0 | 27.0 | 0.00 | 0.00 | 0.00 | 54 | 1010.7 |
| 20260504172911 | 74 | 204 | 15.0 | 29.0 | 0.00 | 0.00 | 0.00 | 56 | 1011.2 |
| 20260504171918 | 74 | 218 | 15.0 | 29.0 | 0.00 | 0.00 | 0.00 | 56 | 1011.4 |
| 20260504170919 | 74 | 202 | 15.0 | 29.0 | 0.00 | 0.00 | 0.00 | 56 | 1011.8 |
| 20260504150602 | 69 | 185 | 14.0 | 28.0 | 0.00 | 0.00 | 0.00 | 67 | 1012.6 |